User: anonymous   Login
Location: Eschertshofen
(49.3064°N, 11.5756°E)
Time: 02:41:00
(UTC+00:00)
Language:

YAOGAN 1 - Orbit

View from above orbital plane
View from above orbital plane
View from above satellite
View from above satellite

Ground track
Ground track

The orbit data is extracted from the following two-line orbital elements,

1 29092U 06015A   20339.33651003  .00000142  00000-0  23910-4 0  9998
2 29092  97.9273   2.4851 0001396  90.0010 270.1364 14.83109082790016
Epoch (UTC): 04 December 2020 08:04:34
Eccentricity: 0.0001396
inclination: 97.9273°
perigee height: 618 km
apogee height: 620 km
right ascension of ascending node: 2.4851°
argument of perigee: 90.0010°
revolutions per day: 14.83109082
mean anomaly at epoch: 270.1364°
orbit number at epoch: 79001

The dashed part of the orbit path shows where the satellite is in the earth's shadow,  

DLR